Location: 22
(39.7117°N, 89.5929°W)
Time: 08:56:06
(UTC-06:00)

Transit 2A - All Passes

Search period start: 29 January 2023 00:00
Search period end: 08 February 2023 00:00
Orbit: 594 x 962 km, 66.7° (Epoch: 29 January)

Date Brightness Start Highest point End Pass type
(mag) Time Alt. Az. Time Alt. Az. Time Alt. Az.
29 Jan - 01:51:39 10° N 01:56:21 23° NE 02:01:12 10° E night (unlit)
29 Jan - 03:33:59 10° NNW 03:40:07 73° WSW 03:46:27 10° SSE visible
29 Jan - 05:21:14 10° W 05:22:25 11° W 05:23:36 10° WSW visible
29 Jan - 16:33:44 10° SE 16:35:35 12° ESE 16:37:30 10° ENE daylight
29 Jan - 18:13:13 10° SW 18:17:53 69° WNW 18:23:05 10° NNE visible
29 Jan - 20:00:20 10° WNW 20:02:13 12° NW 20:04:10 10° NNW visible
30 Jan - 01:17:38 10° N 01:21:32 17° NE 01:25:31 10° E night (unlit)
30 Jan - 02:59:27 10° NNW 03:05:37 81° ENE 03:12:00 10° SSE night (unlit)
30 Jan - 04:44:28 10° WNW 04:48:11 17° WSW 04:51:58 10° SW night (unlit)
30 Jan - 17:38:44 10° SSW 17:43:23 78° ESE 17:48:35 10° NNE visible
30 Jan - 19:24:14 10° W 19:27:19 16° NW 19:30:35 10° N visible
31 Jan - 00:43:54 10° NNE 00:46:38 13° NE 00:49:24 10° ENE night (unlit)
31 Jan - 02:25:01 10° NNW 02:31:04 59° ENE 02:37:20 10° SE night (unlit)
31 Jan - 04:09:04 10° NW 04:13:55 24° WSW 04:18:51 10° SSW night (unlit)
31 Jan - 17:04:28 10° S 17:08:58 50° ESE 17:13:57 10° NE daylight
31 Jan - 18:48:42 10° W 18:52:29 22° NW 18:56:36 10° N visible
01 Feb - 01:50:40 10° NNW 01:56:27 43° NE 02:02:27 10° SE night (unlit)
01 Feb - 03:34:03 10° NW 03:39:36 35° WSW 03:45:14 10° S night (unlit)
01 Feb - 16:30:29 10° S 16:34:37 32° ESE 16:39:09 10° NE daylight
01 Feb - 18:13:28 10° WSW 18:17:44 31° NW 18:22:25 10° NNE visible
02 Feb - 01:16:23 10° N 01:21:47 31° NE 01:27:21 10° ESE night (unlit)
02 Feb - 02:59:15 10° NW 03:05:12 50° WSW 03:11:18 10° S night (unlit)
02 Feb - 15:56:52 10° SSE 16:00:21 21° ESE 16:04:04 10° ENE daylight
02 Feb - 17:38:30 10° SW 17:43:03 44° NW 17:48:08 10° NNE visible
03 Feb - 00:42:12 10° N 00:47:01 24° NE 00:52:00 10° E night (unlit)
03 Feb - 02:24:36 10° NNW 02:30:46 70° WSW 02:37:05 10° SSE night (unlit)
03 Feb - 15:23:55 10° SE 15:26:07 13° ESE 15:28:25 10° ENE daylight
03 Feb - 17:03:45 10° SW 17:08:27 66° WNW 17:13:44 10° NNE daylight
03 Feb - 18:51:02 10° WNW 18:52:51 12° NW 18:54:45 10° NNW visible
04 Feb - 00:08:09 10° N 00:12:12 18° NE 00:16:21 10° E night (unlit)
04 Feb - 01:50:03 10° NNW 01:56:16 84° ENE 02:02:39 10° SSE night (unlit)
04 Feb - 03:35:13 10° WNW 03:38:48 16° WSW 03:42:24 10° SW night (unlit)
04 Feb - 16:29:14 10° SSW 16:33:56 82° ESE 16:39:13 10° NNE daylight
04 Feb - 18:14:52 10° WNW 18:17:56 16° NW 18:21:11 10° N visible
04 Feb - 23:34:20 10° N 23:37:17 14° NE 23:40:18 10° ENE night (unlit)
05 Feb - 01:15:36 10° NNW 01:21:43 61° ENE 01:28:00 10° SE night (unlit)
05 Feb - 02:59:45 10° WNW 03:04:31 23° WSW 03:09:21 10° SSW night (unlit)
05 Feb - 15:54:57 10° S 15:59:30 53° ESE 16:04:36 10° NE daylight
05 Feb - 17:39:17 10° W 17:43:05 22° NW 17:47:12 10° N daylight
05 Feb - 23:01:38 10° NNE 23:02:19 10° NE 23:03:00 10° NE night (unlit)
06 Feb - 00:41:13 10° NNW 00:47:05 44° NE 00:53:09 10° SE night (unlit)
06 Feb - 02:24:42 10° NW 02:30:12 33° WSW 02:35:47 10° S night (unlit)
06 Feb - 15:20:55 10° S 15:25:09 34° ESE 15:29:48 10° NE daylight
06 Feb - 17:04:02 10° WSW 17:08:19 30° NW 17:13:02 10° NNE daylight
07 Feb - 00:06:55 10° NNW 00:12:24 33° NE 00:18:03 10° ESE night (unlit)
07 Feb - 01:49:52 10° NW 01:55:49 48° WSW 02:01:51 10° S night (unlit)
07 Feb - 14:47:13 10° SSE 14:50:52 22° ESE 14:54:47 10° NE daylight
07 Feb - 16:29:01 10° SW 16:33:37 43° NW 16:38:44 10° NNE daylight
07 Feb - 23:32:42 10° N 23:37:39 25° NE 23:42:44 10° E night (unlit)
